Location: Alexander
(41.3564°N, 81.5960°W)
Time: 09:36:14
(UTC+00:00)

EXPRESS MD2 - Pass Details

Date: 24 January 2021
Orbit: 260 x 3983 km, 49.9° (Epoch: 02 March)

Event Time Altitude Azimuth Distance (km) Brightness Sun altitude
Rises 23:28:21 0° 301° (WNW) 5,263 9.0 -10.5°
Reaches altitude 10° 23:32:47 10° 301° (WNW) 3,613 8.1 -11.3°
Maximum altitude 23:40:51 73° 219° (SW) 825 4.3 -12.8°
Drops below altitude 10° 23:44:42 10° 134° (SE) 1,775 5.6 -13.5°
Enters shadow 23:45:07 - 133° (SE) 1,949 5.8 -13.6°
